Meteo Giornale » Osservazioni meteo Gran Bretagna » Lossiemouth

ore: 14:50 - Osservazioni Meteo Lossiemouth
Lat. 57° 43' N Lon. 3° 19' W Alt. 13 metri s.l.m.

nuvoloso Europe/London

14 °C

Nuvoloso

Temp. 24 Ore

7 °C

15 °C

Sud

24 Km/h

Dew point 5 °C

Umidità 54 %

Visibilità  10 Km

Il sole sorge alle ore 07:09

Il sole tramonta alle ore 18:57

Data e Ora Cielo e Fenomeni T °C DP °C Um. % Pres. hPa Vis. km Vento km/h
Oggi h: 14:50 nuvoloso Nuvoloso 14 5 54 1005 10 S 24
Oggi h: 14:20 nuvoloso Nuvoloso 15 6 54 1005 10 S 27.8
Oggi h: 13:50 molto_nuvoloso Molto Nuvoloso 14 5 54 1006 10 S 20.3
Oggi h: 13:20 molto_nuvoloso Molto Nuvoloso 14 5 54 1006 10 S 22.2
Oggi h: 12:50 nuvoloso Nuvoloso 14 5 54 1006 10 S 24
Oggi h: 12:21 nuvoloso Nuvoloso 14 5 54 1006 10 S 24
Oggi h: 11:50 poco_nuvoloso Poco Nuvoloso 14 5 54 1006 10 S/SO 24
Oggi h: 11:20 poco_nuvoloso Poco Nuvoloso 14 6 58 1006 10 S 25.9
Oggi h: 10:50 poco_nuvoloso Poco Nuvoloso 13 6 62 1006 10 S 20.3
Oggi h: 10:25 poco_nuvoloso Poco Nuvoloso 12 6 66 1006 10 S 24
Oggi h: 08:50 poco_nuvoloso Poco Nuvoloso 10 5 71 1006 10 S 16.7
Oggi h: 08:23 poco_nuvoloso Poco Nuvoloso 9 5 75 1006 10 S 14.8
Oggi h: 07:50 poco_nuvoloso Poco Nuvoloso 8 5 81 1005 10 S 13
Oggi h: 06:50 sereno Sereno 7 4 81 1005 10 S/SE 20.3
Oggi h: 05:50 sereno Sereno 8 5 81 1005 10 S 13
Oggi h: 04:50 sereno Sereno 7 5 87 1005 10 N 3.7
Oggi h: 03:50 sereno Sereno 8 5 81 1005 10 S/SE 14.8
Oggi h: 03:31 sereno Sereno 8 5 81 1005 10 S/SE 18.5
Oggi h: 02:50 sereno Sereno 8 4 75 1005 10 S/SE 20.3
Oggi h: 01:50 sereno Sereno 8 4 75 1005 10 S 16.7
Oggi h: 00:50 sereno Sereno 8 4 75 1004 10 S 20.3
Ieri h: 23:50 sereno Sereno 7 4 81 1004 10 S 14.8
Ieri h: 22:50 sereno Sereno 8 4 75 1003 10 S/SO 16.7
Ieri h: 22:21 poco_nuvoloso Poco Nuvoloso 7 4 81 1003 10 S/SO 14.8
Ieri h: 21:50 sereno Sereno 8 4 75 1002 10 S/SO 18.5
Ieri h: 21:20 sereno Sereno 9 5 75 1002 10 SO 22.2
Ieri h: 20:50 sereno Sereno 8 4 75 1002 10 SO 18.5
Ieri h: 20:20 poco_nuvoloso Poco Nuvoloso 9 5 75 1001 10 SO 22.2
Ieri h: 19:50 poco_nuvoloso Poco Nuvoloso 9 5 75 1001 10 SO 20.3
Ieri h: 19:20 poco_nuvoloso Poco Nuvoloso 9 6 81 1000 10 SO 22.2
Ieri h: 18:50 poco_nuvoloso Poco Nuvoloso 10 7 81 999 10 SO 24
Ieri h: 18:20 poco_nuvoloso Poco Nuvoloso 11 7 76 999 10 SO 20.3
Ieri h: 17:50 poco_nuvoloso Rovescio nelle Vicinanze 11 8 81 998 10 O/SO 22.2
Ieri h: 17:20 nuvoloso Rovescio nelle Vicinanze 12 9 81 998 10 SO 24
Ieri h: 16:50 nuvoloso Nuvoloso 12 9 81 997 10 SO 16.7
Ieri h: 16:20 nuvoloso_piovaschi Debole Rovescio di Pioggia 11 9 87 997 10 SO 14.8
Ieri h: 15:50 molto_nuvoloso Molto Nuvoloso 11 9 87 997 10 SO 16.7